Temp
66 66 67 67 67 68 69 67 68 68 73 74 74 74 72 71 68 64 64 65 67 70 73 71 72 74 73 71 72 71 73 69 65 71 70 70 70 59 55 55 57 56 55 57 55 54 54 54 54 56 58 58 59 59 57 56 55 54 56 58 58 57 56 55 54 56 59 62 62 58 57 56 56 55
67 66 66 67 67 70 69 67 70 69 71 73 74 74 75 75 71 69 66 66 70 71 72 74 73 73 73 72 70 71 72 63 66 73 72 70 71 57 54 54 53 53 54 54 53 52 53 54 55 57 57 58 56 55 55 54 54 54 57 59 59 57 57 55 55 57 57 57 57 57 56 55 55 55
67 66 65 66 68 70 69 70 70 70 70 72 74 74 75 74 73 71 71 67 70 74 69 72 77 74 73 73 71 70 72 67 67 70 69 72 61 56 60 53 53 53 52 52 52 53 52 53 53 55 56 57 56 55 56 55 54 56 58 57 56 58 58 57 56 58 59 60 59 59 57 57 56 56
68 67 66 67 67 68 70 68 67 66 70 73 74 74 73 73 73 73 72 70 68 71 73 73 74 74 72 73 71 70 72 67 59 71 69 69 57 66 70 54 52 53 52 52 52 55 54 51 53 54 55 56 57 56 57 55 56 56 55 54 54 55 57 57 56 58 60 60 60 60 59 58 57 57
68 68 68 68 68 68 66 66 69 72 73 72 72 74 73 72 72 72 71 70 69 68 70 72 72 73 72 71 73 72 70 68 67 65 70 69 68 70 71 70 55 51 51 51 51 51 51 51 54 54 53 55 55 55 54 53 53 52 52 52 54 54 55 56 56 57 59 60 60 59 58 58 57 57
67 67 68 69 67 65 66 68 71 73 72 73 73 73 73 73 72 72 73 72 71 68 67 69 73 70 71 72 72 71 69 69 70 70 69 69 69 70 71 71 70 51 53 51 50 51 50 50 51 51 50 50 51 52 51 51 51 51 51 48 51 54 55 56 55 55 56 58 58 57 57 57 57 57
67 65 66 67 65 66 66 68 70 71 72 74 75 74 73 67 71 74 75 73 70 70 68 69 70 70 69 70 72 72 71 71 71 70 70 70 70 71 70 71 74 52 52 50 50 49 50 50 50 49 49 49 50 50 50 50 50 50 49 48 49 51 52 53 54 54 55 57 57 57 56 57 57 56
67 66 65 67 67 67 68 70 70 71 72 72 74 74 73 70 71 72 72 73 73 72 70 68 73 72 69 70 73 72 71 69 69 71 73 72 72 72 72 71 73 62 50 51 50 50 50 50 50 49 49 49 50 50 49 50 50 50 49 49 49 49 50 50 50 51 53 55 56 56 56 57 57 58
67 66 66 67 68 67 67 69 70 71 70 73 73 73 74 73 72 69 71 73 74 71 70 69 71 71 72 73 72 72 71 70 70 71 71 72 73 72 73 74 73 60 50 51 50 50 50 50 49 49 50 50 50 50 49 50 50 50 50 49 49 49 49 51 51 52 52 52 53 55 56 56 58 59
67 68 68 67 68 67 68 69 69 70 70 72 71 73 74 75 73 68 70 71 72 72 72 71 67 68 70 69 69 71 71 71 70 70 71 71 71 71 69 71 72 73 72 70 67 55 53 51 48 51 51 49 49 49 50 50 50 49 50 49 49 49 49 49 50 51 50 51 52 53 54 54 57 59
67 67 67 68 68 67 68 69 69 69 69 69 70 71 71 74 73 68 68 72 71 70 71 71 71 69 69 70 68 70 71 72 72 69 68 67 73 70 69 69 72 72 71 65 56 61 62 59 62 55 50 50 50 50 50 50 49 49 49 48 48 47 48 48 48 50 51 51 51 51 51 51 53 56
66 65 64 66 68 69 70 70 70 69 66 70 70 71 72 72 71 69 69 67 69 69 69 69 69 70 68 67 70 71 69 68 69 72 71 69 70 69 69 69 70 71 70 71 73 61 57 57 55 50 52 51 51 51 51 51 50 50 49 48 48 49 48 48 48 49 49 50 50 49 48 49 50 51
65 64 64 66 68 68 65 61 61 62 63 70 70 70 71 70 70 70 67 60 58 65 67 68 69 68 67 68 66 65 65 66 68 70 70 69 72 73 70 71 72 73 71 72 74 75 73 73 72 74 74 73 61 60 52 57 54 51 50 49 49 49 49 49 49 50 49 50 50 49 48 49 49 49
66 66 66 66 63 60 58 55 52 52 54 57 66 71 71 70 70 69 62 61 63 64 65 68 68 66 66 68 67 67 68 70 71 69 67 67 70 69 69 70 70 72 71 71 71 74 75 71 73 74 73 74 69 72 71 72 66 58 51 49 49 48 48 48 48 49 49 49 49 48 48 48 48 48
65 66 68 68 63 61 58 59 48 50 48 49 51 53 57 62 68 65 60 62 66 67 67 69 68 68 68 68 69 69 70 68 68 69 68 68 68 67 67 67 68 70 70 68 69 71 72 71 72 75 74 73 72 72 72 57 53 51 49 49 49 49 48 48 48 48 48 47 47 47 47 47 47 48
66 66 67 67 67 67 67 67 61 54 46 47 47 45 45 45 46 46 61 65 64 63 67 68 68 69 69 70 68 69 68 67 67 68 67 67 67 66 66 67 68 67 67 68 68 68 70 70 71 70 72 72 71 70 61 53 51 49 48 48 48 48 48 48 48 47 47 47 47 46 46 46 46 46
68 67 66 65 65 66 57 62 65 63 57 45 42 44 45 43 42 42 40 42 60 67 64 67 67 69 70 69 68 68 67 68 66 66 66 66 67 68 67 69 68 65 67 66 66 67 69 69 69 69 70 70 69 69 56 49 48 48 47 47 47 46 46 47 47 47 46 47 47 47 47 47 47 47
70 69 68 67 64 64 63 64 63 64 62 61 61 61 62 60 54 47 45 46 47 57 64 63 66 65 65 67 67 66 67 66 66 66 66 66 66 66 65 64 64 64 66 65 66 65 68 68 68 68 70 71 69 70 61 52 49 48 48 47 46 46 46 46 46 45 45 45 45 45 46 46 46 46
67 67 67 67 66 65 64 64 62 63 63 62 60 60 59 59 57 55 55 54 58 60 61 64 63 61 63 62 62 63 64 66 67 67 67 67 66 65 64 64 64 64 65 64 63 63 68 67 66 67 68 69 69 70 62 50 48 47 47 46 46 46 45 45 45 44 45 45 45 45 44 45 45 45
66 66 66 66 65 64 64 53 48 55 62 60 58 56 56 55 53 50 46 44 46 52 55 56 57 56 52 49 56 58 63 65 64 65 66 67 66 66 65 63 62 60 61 61 62 59 63 66 64 65 67 67 67 68 70 53 49 47 47 47 47 46 45 45 44 44 44 44 44 45 44 44 44 43
62 63 65 66 65 63 62 48 44 47 53 61 59 57 55 55 55 53 50 43 41 41 41 40 40 40 41 41 41 41 41 54 62 68 66 63 65 65 64 60 57 56 56 57 59 61 63 64 64 63 65 64 63 65 67 68 55 51 51 50 49 46 45 44 44 43 44 43 44 43 43 43 44 43
60 56 49 58 65 62 59 43 44 46 57 62 59 57 55 54 53 52 52 50 46 42 42 42 42 42 42 43 43 42 44 45 53 67 63 60 63 59 58 56 60 60 60 58 59 60 62 62 63 61 63 63 64 65 66 64 63 56 56 53 51 48 45 44 43 43 44 44 43 43 43 43 44 52
57 56 51 44 51 58 51 40 43 44 56 61 60 59 57 54 53 53 53 51 50 51 51 50 49 47 47 50 51 49 44 45 50 56 55 58 60 56 58 59 60 60 59 56 58 58 61 60 62 60 58 58 63 64 64 64 64 63 63 63 63 51 48 46 44 44 44 43 43 43 43 43 44 56
56 55 55 49 39 40 40 40 41 44 49 62 61 61 59 56 52 55 55 54 52 51 50 49 49 48 49 50 51 53 52 51 51 54 57 58 60 60 60 60 60 60 59 55 56 57 59 59 58 60 58 54 51 61 62 61 61 61 62 61 61 54 52 51 52 49 45 44 43 43 43 43 43 57
55 53 52 51 40 38 39 39 39 40 41 47 62 62 60 58 54 52 54 51 48 53 52 52 53 54 54 54 54 53 53 52 54 54 54 56 58 59 60 60 59 60 57 52 48 57 55 56 56 56 56 56 56 56 58 58 60 60 60 61 60 61 61 61 58 62 52 49 45 42 43 42 42 48
49 48 46 45 41 38 39 39 39 40 41 43 54 49 42 41 43 55 55 56 57 56 56 56 55 55 55 54 53 53 53 52 52 53 54 54 54 56 57 56 56 57 55 53 45 55 54 55 54 52 54 53 54 55 53 55 59 59 60 61 61 60 60 59 60 60 60 59 60 50 47 42 43 42
47 48 46 44 39 39 39 39 39 40 40 42 43 39 40 40 41 46 54 54 55 55 54 54 53 52 52 51 50 51 52 52 52 53 52 52 53 53 53 53 55 54 54 54 54 53 53 53 53 51 51 52 51 52 53 53 55 58 59 60 59 61 61 60 58 58 58 57 58 42 42 40 40 42
44 44 43 41 38 38 38 38 38 38 40 41 38 39 39 41 44 52 52 52 52 50 50 50 50 50 51 52 52 51 51 51 51 51 51 52 52 53 54 53 52 53 54 54 54 54 52 51 52 53 52 50 49 49 49 55 54 55 54 56 58 60 60 59 58 57 57 58 59 58 55 53 52 49
41 39 38 38 39 39 39 39 39 39 38 38 39 39 41 45 51 51 51 50 50 48 46 46 46 47 47 48 48 49 49 49 51 51 51 51 51 52 53 52 52 51 51 52 54 54 54 52 53 53 53 53 51 52 52 50 51 52 53 53 55 57 58 59 58 58 57 57 56 53 53 52 50 50
38 38 38 38 39 40 40 42 41 39 39 38 39 39 43 47 47 48 47 47 46 45 44 44 45 46 47 47 47 47 48 48 47 48 50 51 51 52 53 53 52 52 52 53 54 54 53 52 52 52 52 54 53 51 52 51 52 54 53 54 54 56 56 58 58 58 57 57 57 54 53 53 52 49
40 39 39 38 38 38 38 38 39 39 40 41 41 41 41 42 43 44 45 45 44 43 44 44 45 45 46 47 47 47 47 46 46 47 46 48 49 50 52 52 52 52 52 52 52 51 52 52 52 51 51 53 53 52 53 54 53 53 54 55 54 51 55 57 57 57 56 54 54 53 51 50 50 47
42 42 40 40 41 40 40 40 39 39 40 40 39 40 39 39 39 41 41 42 44 45 45 45 45 46 46 45 44 45 44 44 44 46 46 47 47 48 50 49 47 51 52 53 53 53 49 54 54 54 54 52 51 52 54 54 53 52 52 53 54 56 56 54 54 54 53 51 50 49 49 48 48 47
41 40 40 39 39 38 37 37 38 38 38 38 40 41 41 40 40 41 41 40 41 42 43 42 42 42 44 44 44 44 44 43 44 47 47 47 47 48 48 46 47 47 49 50 52 53 54 54 54 53 54 53 51 51 50 49 51 52 51 51 52 53 54 54 52 51 51 49 47 46 45 44 44 44
38 37 37 37 37 37 37 36 36 36 36 36 36 36 37 39 40 39 39 38 38 38 38 40 40 40 40 41 42 43 43 44 44 43 41 44 45 44 45 44 46 48 48 49 49 50 51 52 54 53 52 51 51 51 51 49 49 50 51 51 50 51 52 52 52 52 51 48 46 44 43 43 44 44
39 38 38 38 37 37 37 36 35 35 36 36 36 36 37 38 38 36 37 37 37 38 38 37 37 37 38 38 39 39 39 41 42 42 43 45 45 45 45 44 45 46 47 47 48 48 48 49 49 51 51 50 48 49 45 50 50 49 50 50 50 50 50 51 51 51 51 49 48 44 45 45 44 44
38 39 38 38 37 37 36 36 36 36 36 36 36 36 36 35 36 36 35 37 38 37 37 37 36 36 37 38 38 38 39 39 40 41 40 41 42 44 45 45 44 45 47 48 48 49 48 48 47 45 44 45 46 46 45 43 45 50 48 45 48 48 49 51 52 51 49 48 48 47 43 41 43 44
38 38 38 37 37 38 36 35 35 36 37 37 37 37 36 35 36 36 36 36 37 36 36 37 37 37 38 39 39 39 39 40 39 40 41 43 44 44 43 42 41 44 45 47 48 48 48 48 48 46 45 44 44 43 46 45 40 43 49 45 45 48 48 50 50 48 48 47 47 46 43 42 42 45
38 38 37 37 37 37 36 35 35 35 37 37 38 38 38 38 38 38 39 39 37 37 37 37 38 38 39 40 40 41 41 42 41 41 42 42 42 43 43 41 42 44 46 48 48 48 49 48 47 45 44 41 43 43 42 46 46 44 41 46 43 43 46 48 47 45 45 47 45 45 48 46 43 44
38 38 38 37 37 37 36 36 37 37 37 37 38 38 38 39 39 39 38 38 39 38 38 38 39 39 39 40 41 42 42 43 43 43 41 41 42 41 42 41 43 44 45 44 48 50 50 48 47 46 43 41 40 41 41 41 42 47 43 38 44 45 47 45 46 46 45 44 46 48 44 45 44 37
39 39 40 39 38 37 37 38 37 38 38 38 38 39 39 39 39 39 39 38 38 38 39 39 38 39 41 39 42 42 40 40 41 42 42 42 41 40 41 42 43 43 42 43 44 48 49 48 48 48 47 46 45 46 44 42 44 47 47 40 36 41 43 45 46 45 47 48 48 44 46 47 46 47
40 40 39 40 40 39 38 38 39 39 39 40 40 39 41 41 40 40 39 41 40 42 43 41 39 39 41 40 40 43 43 43 42 42 41 42 40 41 39 39 45 45 45 44 45 45 47 49 45 34 39 43 43 41 41 42 41 43 45 46 40 37 36 39 47 48 44 48 50 46 48 47 48 48
43 42 42 42 41 41 41 40 40 40 41 41 40 39 42 39 38 35 37 35 37 39 42 41 40 40 40 40 41 41 43 42 42 42 41 43 44 43 42 44 45 45 45 44 44 44 48 50 49 48 48 45 46 44 42 41 42 43 44 45 47 40 37 36 35 38 47 45 48 47 48 49 50 48
44 44 44 44 43 43 42 42 43 42 42 43 42 41 41 40 40 40 43 41 41 42 42 42 41 42 41 41 41 41 43 43 42 42 41 43 44 44 45 45 44 43 44 44 47 45 47 47 50 46 47 49 46 45 41 41 43 44 44 46 46 49 47 37 37 36 36 35 38 42 46 45 46 43
44 44 45 45 44 44 44 44 44 44 44 40 39 42 43 42 41 42 42 43 43 43 43 43 43 43 42 42 43 44 45 45 44 43 44 43 44 45 44 44 44 44 46 47 47 49 49 49 48 48 47 45 45 44 41 42 44 44 45 44 45 46 47 49 46 38 37 37 35 35 32 34 36 37
43 44 45 45 45 46 45 46 45 45 44 42 41 43 43 44 43 43 42 42 43 42 43 44 44 44 44 45 46 45 45 42 44 45 46 46 46 46 45 45 46 45 46 46 47 47 48 49 49 49 47 46 46 44 42 42 43 43 43 42 42 45 48 48 47 47 48 48 38 32 34 33 35 35
MSLP
1019.78 1019.86 1019.94 1019.98 1020.10 1020.10 1020.22 1020.62 1020.74 1020.78 1020.34 1020.18 1020.38 1020.46 1020.82 1021.06 1021.74 1022.70 1022.90 1022.90 1022.78 1022.62 1022.46 1022.82 1022.98 1023.02 1023.26 1023.62 1023.82 1024.14 1024.14 1024.30 1024.70 1024.70 1024.78 1024.90 1025.02 1025.42 1025.62 1025.70 1025.78 1025.90 1026.02 1026.10 1026.22 1026.34 1026.42 1026.50 1026.54 1026.66 1026.74 1026.82 1026.90 1026.94 1027.02 1027.14 1027.30 1027.46 1027.50 1027.50 1027.46 1027.50 1027.54 1027.54 1027.54 1027.46 1027.34 1027.26 1027.26 1027.38 1027.50 1027.62 1027.70 1027.78
1019.42 1019.58 1019.70 1019.78 1019.86 1019.74 1019.98 1020.34 1020.38 1020.62 1020.30 1020.18 1020.18 1020.30 1020.18 1020.34 1020.98 1021.46 1022.06 1022.22 1021.94 1022.06 1022.26 1022.14 1022.46 1022.86 1023.10 1023.38 1023.74 1023.86 1023.98 1024.30 1024.58 1024.50 1024.62 1024.78 1024.86 1025.30 1025.58 1025.70 1025.78 1025.90 1025.98 1026.10 1026.22 1026.34 1026.46 1026.50 1026.54 1026.62 1026.70 1026.74 1026.86 1026.90 1026.94 1027.02 1027.14 1027.26 1027.34 1027.34 1027.30 1027.30 1027.34 1027.38 1027.34 1027.30 1027.22 1027.18 1027.22 1027.26 1027.38 1027.46 1027.54 1027.58
1019.14 1019.38 1019.54 1019.54 1019.62 1019.54 1019.82 1019.98 1020.18 1020.26 1020.22 1020.02 1020.02 1020.10 1020.10 1020.26 1020.42 1020.82 1021.02 1021.78 1021.62 1021.30 1022.26 1022.10 1021.90 1022.38 1022.78 1023.06 1023.42 1023.74 1023.82 1024.22 1024.46 1024.50 1024.62 1024.66 1024.94 1025.34 1025.50 1025.66 1025.74 1025.86 1025.98 1026.10 1026.22 1026.34 1026.46 1026.54 1026.58 1026.62 1026.70 1026.74 1026.82 1026.90 1026.94 1026.94 1026.98 1027.06 1027.14 1027.18 1027.18 1027.14 1027.14 1027.18 1027.22 1027.26 1027.26 1027.22 1027.22 1027.22 1027.26 1027.30 1027.34 1027.38
1018.86 1019.06 1019.22 1019.34 1019.54 1019.62 1019.70 1019.98 1020.22 1020.30 1020.06 1019.86 1019.86 1019.94 1020.10 1020.26 1020.38 1020.50 1020.78 1021.18 1021.66 1021.46 1021.46 1021.74 1022.02 1022.22 1022.66 1022.90 1023.26 1023.54 1023.74 1024.14 1024.50 1024.30 1024.54 1024.66 1025.14 1025.22 1025.10 1025.54 1025.70 1025.82 1025.90 1026.06 1026.18 1026.30 1026.42 1026.54 1026.58 1026.62 1026.66 1026.70 1026.74 1026.82 1026.86 1026.90 1026.86 1026.86 1026.94 1027.02 1027.10 1027.10 1027.10 1027.10 1027.14 1027.18 1027.18 1027.18 1027.18 1027.14 1027.10 1027.14 1027.14 1027.18
1018.70 1018.78 1018.90 1019.06 1019.30 1019.54 1019.74 1019.78 1019.78 1019.66 1019.62 1019.74 1019.82 1019.78 1019.94 1020.22 1020.34 1020.54 1020.74 1021.14 1021.38 1021.78 1021.74 1021.70 1021.98 1022.18 1022.46 1022.94 1022.94 1023.18 1023.50 1023.86 1024.14 1024.34 1024.34 1024.58 1024.86 1024.86 1024.82 1024.94 1025.42 1025.70 1025.82 1025.98 1026.10 1026.22 1026.38 1026.46 1026.50 1026.50 1026.54 1026.58 1026.62 1026.70 1026.74 1026.78 1026.78 1026.78 1026.82 1026.90 1026.98 1027.06 1027.10 1027.06 1027.06 1027.10 1027.06 1027.06 1027.06 1027.02 1026.98 1026.94 1026.98 1027.02
1018.46 1018.58 1018.78 1018.86 1019.38 1019.46 1019.46 1019.54 1019.38 1019.26 1019.38 1019.50 1019.66 1019.74 1019.82 1020.06 1020.26 1020.30 1020.58 1020.74 1020.94 1021.62 1022.02 1021.98 1021.90 1022.34 1022.42 1022.62 1022.78 1022.98 1023.30 1023.54 1023.74 1023.98 1024.22 1024.46 1024.62 1024.66 1024.66 1024.70 1024.82 1025.34 1025.58 1025.74 1025.90 1026.06 1026.18 1026.30 1026.34 1026.38 1026.42 1026.46 1026.54 1026.58 1026.66 1026.70 1026.70 1026.74 1026.78 1026.82 1026.90 1026.98 1027.02 1027.02 1027.02 1027.02 1026.98 1026.90 1026.82 1026.78 1026.74 1026.74 1026.74 1026.78
1018.26 1018.58 1018.74 1018.86 1019.06 1019.18 1019.38 1019.26 1019.14 1019.06 1019.14 1019.14 1019.26 1019.42 1019.74 1020.66 1020.34 1020.18 1020.14 1020.50 1020.94 1021.14 1021.58 1021.66 1021.98 1022.18 1022.42 1022.46 1022.54 1022.78 1022.98 1023.22 1023.46 1023.74 1023.94 1024.14 1024.30 1024.42 1024.50 1024.54 1024.42 1024.94 1025.26 1025.50 1025.66 1025.82 1025.98 1026.10 1026.18 1026.26 1026.30 1026.34 1026.38 1026.42 1026.46 1026.54 1026.62 1026.62 1026.66 1026.66 1026.70 1026.70 1026.74 1026.74 1026.74 1026.74 1026.70 1026.62 1026.54 1026.46 1026.42 1026.38 1026.42 1026.46
1018.02 1018.30 1018.54 1018.58 1018.66 1018.86 1018.90 1018.86 1018.90 1018.94 1018.98 1019.10 1019.06 1019.22 1019.42 1019.98 1020.10 1020.10 1020.22 1020.22 1020.42 1020.70 1021.22 1021.66 1021.42 1021.78 1022.18 1022.42 1022.26 1022.58 1022.86 1023.18 1023.46 1023.50 1023.54 1023.74 1023.90 1024.02 1024.22 1024.34 1024.30 1024.50 1024.98 1025.22 1025.42 1025.58 1025.74 1025.90 1025.98 1026.02 1026.10 1026.14 1026.18 1026.22 1026.26 1026.30 1026.34 1026.38 1026.42 1026.42 1026.46 1026.46 1026.42 1026.42 1026.42 1026.42 1026.38 1026.30 1026.26 1026.18 1026.10 1026.06 1026.10 1026.14
1017.78 1018.02 1018.26 1018.34 1018.38 1018.62 1018.70 1018.70 1018.78 1018.78 1018.98 1018.90 1019.02 1019.14 1019.10 1019.38 1019.62 1020.26 1020.18 1020.14 1020.18 1020.62 1020.86 1021.26 1021.38 1021.50 1021.74 1021.82 1022.10 1022.26 1022.62 1022.94 1023.18 1023.34 1023.42 1023.46 1023.58 1023.74 1023.82 1023.94 1024.06 1024.38 1024.78 1024.98 1025.14 1025.34 1025.50 1025.58 1025.70 1025.74 1025.78 1025.82 1025.90 1025.94 1025.94 1025.94 1025.98 1026.02 1026.06 1026.06 1026.06 1026.02 1025.98 1025.98 1025.94 1025.94 1025.94 1025.94 1025.90 1025.86 1025.78 1025.78 1025.74 1025.74
1017.58 1017.70 1017.98 1018.14 1018.30 1018.42 1018.46 1018.50 1018.54 1018.62 1018.82 1018.86 1018.94 1018.98 1018.94 1018.98 1019.34 1019.94 1020.06 1020.10 1020.14 1020.30 1020.42 1020.70 1021.50 1021.66 1021.70 1021.94 1022.10 1022.10 1022.26 1022.46 1022.86 1023.06 1023.18 1023.30 1023.38 1023.54 1023.70 1023.70 1023.74 1023.86 1024.06 1024.30 1024.58 1024.90 1025.10 1025.18 1025.30 1025.34 1025.34 1025.42 1025.46 1025.46 1025.46 1025.50 1025.50 1025.54 1025.58 1025.62 1025.66 1025.66 1025.66 1025.62 1025.58 1025.58 1025.62 1025.70 1025.70 1025.66 1025.58 1025.54 1025.50 1025.42
1017.54 1017.70 1017.90 1017.94 1018.06 1018.22 1018.22 1018.30 1018.38 1018.58 1018.74 1018.78 1018.78 1018.74 1018.90 1018.86 1019.10 1019.74 1020.06 1019.90 1020.14 1020.34 1020.46 1020.62 1020.82 1021.30 1021.50 1021.54 1021.98 1022.06 1022.14 1022.26 1022.30 1022.62 1022.94 1023.14 1022.90 1023.14 1023.26 1023.42 1023.42 1023.58 1023.78 1023.98 1024.22 1024.22 1024.26 1024.34 1024.50 1024.62 1024.82 1024.90 1024.94 1024.94 1024.94 1025.02 1025.14 1025.22 1025.30 1025.34 1025.34 1025.26 1025.22 1025.18 1025.22 1025.26 1025.26 1025.26 1025.26 1025.26 1025.30 1025.30 1025.22 1025.18
1017.50 1017.82 1017.90 1017.78 1017.70 1017.82 1017.94 1018.02 1018.14 1018.34 1018.74 1018.58 1018.70 1018.58 1018.66 1018.78 1019.02 1019.42 1019.62 1020.02 1020.18 1020.42 1020.54 1020.62 1020.90 1020.94 1021.34 1021.70 1021.66 1021.82 1022.18 1022.38 1022.42 1022.14 1022.22 1022.46 1022.46 1022.70 1022.90 1023.02 1023.18 1023.26 1023.46 1023.58 1023.54 1023.82 1024.14 1024.18 1024.30 1024.42 1024.46 1024.46 1024.50 1024.54 1024.70 1024.82 1024.90 1024.94 1024.90 1024.86 1024.86 1024.90 1024.90 1024.86 1024.86 1024.86 1024.86 1024.86 1024.86 1024.90 1024.94 1024.94 1024.90 1024.86
1017.46 1017.70 1017.66 1017.58 1017.50 1017.58 1017.70 1017.90 1018.02 1018.14 1018.46 1018.54 1018.62 1018.50 1018.46 1018.62 1018.82 1019.14 1019.74 1020.70 1021.58 1020.98 1020.66 1020.62 1020.58 1020.90 1021.22 1021.26 1021.66 1021.94 1022.02 1021.82 1021.58 1021.78 1022.06 1022.10 1021.98 1022.06 1022.46 1022.62 1022.74 1022.90 1023.06 1023.14 1023.18 1023.10 1023.26 1023.42 1023.42 1023.46 1023.42 1023.42 1023.90 1024.10 1024.30 1024.22 1024.30 1024.34 1024.38 1024.46 1024.50 1024.50 1024.50 1024.46 1024.46 1024.46 1024.42 1024.42 1024.42 1024.46 1024.50 1024.46 1024.46 1024.42
1017.26 1017.42 1017.50 1017.46 1017.50 1017.66 1017.82 1018.02 1018.22 1018.42 1018.58 1018.78 1018.50 1018.26 1018.30 1018.50 1018.70 1019.06 1019.94 1020.66 1020.78 1020.66 1020.82 1020.38 1020.46 1020.86 1020.90 1020.94 1021.06 1021.14 1021.10 1021.10 1021.22 1021.62 1021.94 1022.14 1022.02 1022.30 1022.42 1022.50 1022.58 1022.70 1022.90 1022.98 1023.02 1022.86 1022.78 1023.10 1023.10 1023.02 1023.06 1023.10 1023.42 1023.38 1023.50 1023.50 1023.62 1023.78 1024.06 1024.14 1024.18 1024.18 1024.18 1024.14 1024.14 1024.10 1024.06 1024.06 1024.06 1024.10 1024.06 1024.06 1024.02 1024.02
1017.10 1017.10 1017.14 1017.14 1017.50 1017.78 1017.94 1018.02 1018.22 1018.38 1018.62 1018.70 1018.66 1018.62 1018.46 1018.42 1018.66 1019.18 1020.02 1020.46 1020.18 1019.98 1019.94 1019.82 1020.06 1020.22 1020.30 1020.34 1020.42 1020.54 1020.70 1021.02 1021.18 1021.30 1021.54 1021.74 1021.98 1022.22 1022.42 1022.42 1022.46 1022.58 1022.66 1022.90 1022.86 1022.78 1022.70 1022.86 1022.86 1022.62 1022.66 1022.86 1023.02 1023.10 1023.18 1023.58 1023.78 1023.90 1023.94 1023.94 1023.94 1023.98 1023.98 1023.94 1023.90 1023.90 1023.86 1023.86 1023.82 1023.78 1023.74 1023.70 1023.66 1023.66
1016.82 1016.90 1016.94 1017.02 1017.10 1017.34 1017.46 1017.74 1018.22 1018.62 1018.82 1018.74 1018.90 1019.10 1019.10 1019.18 1019.34 1019.46 1019.38 1019.46 1019.70 1020.10 1019.74 1019.62 1019.66 1019.74 1019.74 1019.78 1020.10 1020.30 1020.54 1020.82 1021.10 1021.22 1021.42 1021.62 1021.74 1021.94 1022.10 1022.10 1022.14 1022.50 1022.70 1022.74 1022.78 1022.70 1022.70 1022.86 1022.82 1022.86 1022.82 1022.82 1022.94 1023.14 1023.42 1023.62 1023.74 1023.78 1023.86 1023.90 1023.90 1023.86 1023.82 1023.74 1023.70 1023.62 1023.58 1023.54 1023.46 1023.42 1023.38 1023.34 1023.30 1023.26
1016.42 1016.58 1016.78 1017.02 1017.18 1017.34 1017.86 1017.78 1017.86 1018.18 1018.70 1019.02 1019.06 1019.18 1019.42 1019.66 1019.82 1019.86 1019.98 1020.18 1019.78 1019.58 1019.98 1019.58 1019.54 1019.46 1019.38 1019.62 1019.82 1019.94 1020.22 1020.46 1020.90 1021.14 1021.34 1021.42 1021.54 1021.54 1021.78 1021.82 1022.10 1022.66 1022.78 1022.82 1022.82 1022.74 1022.58 1022.74 1022.70 1022.70 1022.70 1022.78 1022.94 1022.98 1023.14 1023.46 1023.58 1023.74 1023.78 1023.74 1023.70 1023.66 1023.62 1023.54 1023.46 1023.38 1023.30 1023.22 1023.14 1023.06 1023.02 1022.94 1022.90 1022.86
1015.94 1016.14 1016.42 1016.70 1017.02 1017.30 1017.58 1017.66 1017.82 1017.94 1018.22 1018.54 1018.74 1018.86 1018.98 1019.30 1019.74 1019.98 1020.18 1020.06 1020.06 1019.78 1019.78 1019.86 1019.54 1019.58 1019.78 1019.78 1019.86 1020.18 1020.34 1020.58 1020.70 1020.86 1020.94 1021.18 1021.42 1021.70 1021.98 1022.30 1022.58 1022.94 1022.94 1022.94 1022.82 1022.74 1022.46 1022.78 1022.70 1022.62 1022.50 1022.62 1022.82 1022.74 1022.94 1023.18 1023.46 1023.54 1023.58 1023.58 1023.58 1023.54 1023.50 1023.46 1023.38 1023.30 1023.22 1023.14 1023.02 1022.94 1022.82 1022.74 1022.62 1022.58
1015.94 1016.10 1016.26 1016.38 1016.66 1017.02 1017.26 1017.42 1017.58 1017.78 1018.14 1018.42 1018.74 1019.02 1019.34 1019.58 1019.90 1020.22 1020.34 1020.34 1020.02 1020.02 1020.18 1020.06 1019.98 1020.14 1020.18 1020.34 1020.46 1020.54 1020.66 1020.74 1020.78 1020.86 1020.94 1021.10 1021.38 1021.78 1022.22 1022.46 1022.74 1022.94 1023.18 1023.26 1023.18 1022.82 1022.42 1022.66 1022.90 1022.74 1022.66 1022.62 1022.62 1022.62 1022.70 1023.06 1023.22 1023.30 1023.34 1023.34 1023.30 1023.30 1023.26 1023.18 1023.14 1023.06 1023.02 1022.94 1022.86 1022.74 1022.62 1022.50 1022.38 1022.34
1015.94 1016.06 1016.22 1016.38 1016.66 1016.90 1017.10 1017.66 1017.86 1017.86 1018.02 1018.50 1019.02 1019.54 1019.82 1020.14 1020.46 1020.94 1021.30 1020.74 1020.66 1020.58 1020.66 1021.06 1021.06 1021.02 1021.26 1021.14 1021.06 1020.98 1020.78 1020.90 1021.10 1021.18 1021.26 1021.34 1021.54 1021.62 1021.78 1022.18 1022.70 1023.18 1023.62 1023.62 1023.26 1023.38 1022.94 1022.74 1022.78 1022.70 1022.70 1022.78 1022.78 1022.66 1022.54 1022.70 1023.02 1023.10 1023.10 1023.10 1023.10 1023.14 1023.18 1023.14 1023.10 1022.98 1022.86 1022.74 1022.58 1022.46 1022.34 1022.22 1022.18 1022.18
1016.38 1016.46 1016.42 1016.38 1016.58 1016.86 1017.30 1017.98 1018.06 1018.06 1017.90 1018.22 1018.82 1019.38 1019.90 1020.18 1020.30 1020.94 1021.42 1021.26 1021.14 1021.46 1021.78 1021.94 1022.10 1022.02 1021.82 1021.70 1021.58 1021.54 1021.50 1021.22 1021.02 1020.90 1021.14 1021.62 1021.50 1021.50 1021.66 1022.46 1023.10 1023.50 1023.90 1024.02 1023.78 1023.22 1022.70 1022.62 1022.86 1022.90 1022.82 1022.98 1023.02 1022.74 1022.50 1022.46 1022.74 1022.90 1022.90 1022.82 1022.98 1023.10 1023.14 1023.10 1023.06 1022.98 1022.86 1022.70 1022.54 1022.38 1022.26 1022.18 1022.14 1022.18
1016.70 1017.10 1017.26 1016.86 1016.66 1016.90 1017.50 1018.14 1018.06 1018.02 1017.82 1018.14 1018.78 1019.34 1019.78 1020.22 1020.58 1021.18 1021.34 1021.42 1021.74 1021.74 1021.90 1022.14 1022.18 1022.26 1022.22 1021.98 1021.90 1021.98 1021.94 1021.82 1021.38 1020.90 1021.30 1021.98 1021.82 1022.10 1022.22 1022.46 1022.38 1022.78 1023.22 1023.86 1023.90 1023.26 1022.78 1023.02 1023.02 1023.10 1022.90 1022.86 1022.66 1022.58 1022.54 1022.78 1022.66 1022.70 1022.70 1022.86 1022.94 1022.98 1023.02 1022.98 1022.90 1022.86 1022.78 1022.66 1022.54 1022.42 1022.34 1022.26 1022.26 1022.02
1017.14 1017.42 1017.74 1017.78 1017.34 1017.14 1017.82 1018.26 1018.18 1018.10 1017.82 1018.02 1018.42 1018.70 1019.14 1019.94 1020.54 1021.06 1021.22 1021.30 1021.50 1021.74 1021.90 1022.26 1022.18 1022.38 1022.50 1022.34 1022.26 1022.58 1022.50 1022.50 1022.38 1022.34 1022.50 1022.58 1022.14 1022.54 1022.46 1022.54 1022.38 1022.38 1022.90 1024.06 1024.06 1023.54 1023.02 1023.34 1023.06 1023.42 1023.26 1022.82 1022.50 1022.58 1022.74 1022.74 1022.86 1022.94 1022.90 1022.78 1022.70 1022.78 1022.82 1022.78 1022.70 1022.70 1022.70 1022.66 1022.54 1022.42 1022.34 1022.30 1022.30 1021.74
1017.50 1017.66 1017.90 1018.30 1018.42 1018.22 1018.50 1018.70 1018.74 1018.70 1018.42 1017.94 1018.22 1018.34 1018.78 1019.54 1020.58 1020.86 1021.02 1021.34 1021.50 1021.90 1022.14 1022.46 1022.54 1022.70 1022.78 1022.74 1022.74 1022.82 1022.86 1022.98 1023.02 1022.94 1022.82 1022.78 1022.46 1022.42 1022.38 1022.42 1022.38 1022.22 1022.62 1024.30 1024.38 1023.86 1023.58 1023.62 1023.46 1023.58 1023.70 1023.70 1023.18 1022.66 1022.98 1023.06 1023.14 1023.14 1023.06 1022.98 1022.78 1022.66 1022.66 1022.54 1022.34 1022.34 1022.38 1022.34 1022.26 1022.22 1022.22 1022.22 1022.22 1021.58
1017.58 1018.06 1018.50 1018.86 1019.18 1018.90 1019.02 1019.02 1018.98 1018.90 1018.90 1018.66 1018.42 1018.50 1018.78 1019.38 1020.14 1020.62 1021.06 1021.62 1021.54 1021.74 1022.06 1022.18 1022.26 1022.34 1022.42 1022.54 1022.66 1022.86 1023.10 1023.26 1023.34 1023.38 1023.42 1023.30 1023.14 1022.86 1022.66 1022.54 1022.70 1022.66 1023.46 1024.66 1024.62 1024.06 1023.82 1023.86 1023.82 1023.90 1023.74 1023.82 1023.54 1023.46 1023.22 1023.42 1023.22 1023.06 1023.14 1022.98 1022.74 1022.54 1022.42 1022.18 1021.98 1021.66 1021.66 1021.74 1021.86 1021.98 1022.06 1022.26 1022.34 1022.14
1018.50 1018.98 1019.38 1019.74 1019.82 1019.46 1019.54 1019.66 1019.66 1019.62 1019.54 1019.50 1019.50 1020.22 1020.26 1020.54 1020.62 1020.66 1021.02 1021.18 1021.34 1021.50 1021.62 1021.78 1021.98 1022.22 1022.38 1022.66 1022.94 1023.14 1023.38 1023.62 1023.74 1023.74 1023.82 1023.90 1023.82 1023.74 1023.70 1023.58 1023.30 1023.14 1023.62 1024.62 1024.70 1024.38 1024.26 1023.82 1024.26 1024.34 1023.98 1023.98 1023.62 1023.66 1023.70 1023.34 1023.02 1023.14 1023.14 1022.86 1022.74 1022.54 1022.38 1022.18 1021.98 1021.86 1021.82 1021.82 1021.70 1022.10 1022.34 1022.42 1022.42 1022.46
1019.10 1019.38 1019.82 1020.30 1020.22 1019.94 1019.94 1020.02 1020.14 1020.26 1020.42 1020.58 1021.06 1021.22 1021.26 1021.38 1021.34 1021.30 1021.38 1021.58 1021.54 1021.74 1021.94 1022.10 1022.38 1022.70 1022.90 1023.18 1023.46 1023.58 1023.74 1023.98 1024.10 1024.10 1024.22 1024.26 1024.22 1024.26 1024.30 1024.38 1024.34 1024.30 1024.46 1024.58 1024.66 1024.62 1024.50 1024.30 1024.54 1024.58 1024.46 1024.22 1024.14 1023.74 1023.54 1023.34 1023.18 1023.06 1022.78 1022.70 1022.66 1022.38 1022.34 1022.34 1022.26 1022.14 1022.10 1022.02 1021.86 1022.30 1022.34 1022.54 1022.66 1022.62
1019.74 1019.98 1020.34 1020.70 1020.50 1020.42 1020.50 1020.62 1020.74 1020.90 1020.98 1021.34 1021.62 1021.62 1021.74 1021.82 1021.82 1021.74 1021.94 1022.06 1022.18 1022.38 1022.54 1022.78 1022.98 1023.22 1023.42 1023.46 1023.62 1023.94 1024.06 1024.22 1024.34 1024.42 1024.46 1024.42 1024.50 1024.42 1024.46 1024.66 1024.70 1024.74 1024.70 1024.66 1024.70 1024.78 1024.78 1024.66 1024.46 1024.46 1024.50 1024.50 1024.26 1023.98 1023.74 1023.26 1023.26 1023.18 1023.06 1022.94 1022.74 1022.42 1022.38 1022.42 1022.26 1022.14 1022.02 1021.94 1021.70 1021.78 1021.90 1022.02 1022.22 1022.50
1020.58 1020.78 1020.86 1020.82 1020.74 1020.74 1020.82 1020.94 1021.14 1021.50 1021.86 1021.98 1022.02 1022.02 1022.02 1022.06 1022.14 1022.34 1022.46 1022.62 1022.62 1022.94 1023.34 1023.58 1023.82 1024.10 1024.30 1024.38 1024.50 1024.58 1024.66 1024.70 1024.62 1024.54 1024.66 1024.74 1024.78 1024.74 1024.74 1024.82 1024.86 1024.98 1024.98 1024.90 1024.82 1024.74 1024.62 1024.58 1024.42 1024.30 1024.14 1024.06 1024.02 1023.74 1023.70 1023.70 1023.66 1023.34 1023.38 1023.46 1022.78 1022.58 1022.42 1022.34 1022.30 1022.06 1022.06 1021.94 1022.02 1022.18 1022.06 1022.02 1022.18 1022.26
1021.22 1021.06 1021.10 1021.26 1021.38 1021.34 1021.34 1021.42 1021.82 1022.30 1022.66 1022.70 1022.62 1022.58 1022.54 1022.66 1022.94 1023.06 1023.22 1023.42 1023.46 1023.74 1024.10 1024.30 1024.42 1024.58 1024.66 1024.78 1025.02 1025.06 1024.98 1024.90 1024.98 1024.86 1024.70 1024.58 1024.66 1024.62 1024.46 1024.46 1024.74 1024.94 1024.98 1024.94 1024.86 1024.78 1024.70 1024.66 1024.54 1024.38 1024.06 1023.66 1023.82 1023.94 1023.74 1023.78 1023.46 1023.18 1023.26 1023.26 1023.06 1022.58 1022.14 1022.26 1022.18 1021.94 1021.86 1021.62 1021.46 1021.86 1022.06 1022.18 1022.18 1022.34
1021.78 1021.74 1021.78 1021.98 1022.14 1022.34 1022.42 1022.42 1022.58 1022.70 1022.78 1022.86 1023.10 1023.18 1023.26 1023.46 1023.70 1023.82 1023.86 1024.18 1024.42 1024.50 1024.54 1024.66 1024.70 1024.86 1025.02 1025.10 1025.06 1025.06 1025.10 1025.22 1025.34 1025.30 1025.14 1024.82 1024.86 1024.74 1024.58 1024.38 1024.42 1024.58 1024.90 1025.02 1025.02 1024.98 1024.70 1024.54 1024.46 1024.42 1024.18 1023.74 1023.70 1023.86 1023.90 1023.70 1023.42 1023.34 1023.22 1023.18 1023.06 1022.66 1022.26 1022.26 1022.18 1021.94 1022.02 1022.06 1022.06 1022.14 1022.34 1022.54 1022.54 1022.74
1022.14 1022.22 1022.26 1022.26 1022.42 1022.58 1022.86 1023.14 1023.22 1023.34 1023.46 1023.62 1023.70 1023.78 1023.82 1024.06 1024.42 1024.70 1024.86 1025.02 1025.10 1025.02 1024.94 1024.94 1025.02 1025.06 1025.10 1025.30 1025.38 1025.42 1025.54 1025.70 1025.70 1025.54 1025.34 1025.14 1025.06 1025.02 1024.78 1024.70 1024.82 1024.62 1024.54 1024.58 1024.54 1024.58 1024.50 1024.38 1024.34 1024.30 1024.34 1024.38 1024.26 1024.14 1023.86 1023.62 1023.66 1023.66 1023.42 1023.18 1022.94 1022.46 1022.42 1022.54 1022.42 1022.38 1022.58 1022.58 1022.46 1022.46 1022.54 1022.62 1022.70 1022.74
1022.58 1022.50 1022.50 1022.66 1022.86 1023.18 1023.50 1023.78 1023.94 1024.06 1024.18 1024.34 1024.38 1024.42 1024.50 1024.74 1024.94 1025.22 1025.50 1025.74 1025.82 1025.62 1025.38 1025.42 1025.38 1025.46 1025.46 1025.58 1025.62 1025.58 1025.78 1025.90 1025.86 1025.70 1025.50 1025.50 1025.30 1025.18 1025.02 1025.14 1025.06 1024.90 1024.62 1024.50 1024.54 1024.50 1024.58 1024.58 1024.58 1024.58 1024.46 1024.66 1024.82 1024.78 1024.50 1024.30 1023.86 1023.78 1023.66 1023.38 1023.14 1022.82 1022.70 1022.78 1022.86 1022.94 1022.94 1022.86 1022.94 1022.90 1022.94 1023.14 1023.26 1023.30
1023.26 1023.54 1023.70 1023.82 1023.78 1023.82 1024.02 1024.34 1024.62 1024.78 1024.98 1025.22 1025.42 1025.50 1025.38 1025.30 1025.50 1025.90 1026.18 1026.30 1026.34 1026.18 1025.90 1025.82 1025.82 1025.98 1026.02 1026.06 1026.06 1026.02 1026.02 1026.02 1026.10 1026.26 1026.06 1025.86 1025.70 1025.54 1025.38 1025.34 1025.18 1024.98 1024.82 1024.78 1024.86 1024.90 1024.86 1024.86 1024.58 1024.58 1024.90 1025.02 1025.10 1025.10 1024.86 1024.50 1024.22 1023.94 1023.70 1023.54 1023.38 1023.14 1023.02 1023.18 1023.22 1023.22 1023.10 1023.06 1022.98 1022.90 1022.90 1023.10 1023.22 1023.34
1023.70 1023.82 1024.18 1024.42 1024.54 1024.66 1024.74 1024.98 1025.22 1025.38 1025.50 1025.74 1025.98 1026.10 1026.02 1026.02 1026.26 1026.46 1026.54 1026.50 1026.38 1026.22 1026.18 1026.30 1026.50 1026.66 1026.66 1026.78 1026.74 1026.70 1026.70 1026.54 1026.38 1026.38 1026.14 1025.90 1025.66 1025.54 1025.50 1025.50 1025.46 1025.38 1025.22 1024.98 1025.06 1025.18 1025.22 1024.98 1024.78 1024.30 1024.30 1024.46 1024.78 1025.14 1025.42 1024.94 1024.42 1024.14 1023.90 1023.70 1023.58 1023.54 1023.46 1023.46 1023.42 1023.26 1023.14 1022.98 1022.78 1022.78 1022.54 1022.66 1023.14 1023.46
1024.22 1024.26 1024.42 1024.62 1024.86 1025.02 1025.18 1025.46 1025.62 1025.82 1025.98 1026.10 1026.22 1026.34 1026.50 1026.70 1026.78 1026.74 1026.70 1026.58 1026.34 1026.30 1026.30 1026.46 1026.70 1026.90 1026.94 1026.94 1026.94 1026.94 1026.86 1026.74 1026.54 1026.46 1026.38 1026.22 1025.98 1025.70 1025.62 1025.70 1025.70 1025.70 1025.38 1025.30 1025.30 1025.26 1025.30 1025.14 1025.06 1024.98 1024.78 1024.34 1023.86 1023.54 1024.42 1025.30 1024.98 1024.62 1024.30 1024.30 1024.02 1023.98 1023.82 1023.46 1023.22 1023.26 1023.22 1023.10 1022.94 1022.78 1022.82 1023.18 1023.38 1023.38
1024.58 1024.70 1024.82 1024.98 1025.10 1025.14 1025.42 1025.74 1025.90 1026.14 1026.26 1026.38 1026.46 1026.50 1026.58 1026.70 1026.82 1026.82 1026.82 1026.66 1026.58 1026.62 1026.58 1026.54 1026.78 1026.86 1026.90 1026.86 1026.90 1026.90 1026.78 1026.54 1026.46 1026.38 1026.18 1025.90 1025.86 1025.86 1025.86 1026.02 1026.22 1026.06 1025.70 1025.58 1025.50 1025.38 1025.30 1025.10 1025.10 1025.14 1024.78 1024.38 1023.90 1024.14 1023.82 1024.30 1025.18 1025.06 1024.82 1024.90 1024.62 1024.26 1024.18 1023.66 1023.26 1023.26 1023.42 1023.42 1023.30 1023.38 1023.46 1023.26 1023.50 1023.46
1024.66 1024.82 1024.98 1025.14 1025.30 1025.50 1025.74 1025.90 1026.10 1026.30 1026.50 1026.58 1026.58 1026.54 1026.58 1026.66 1026.70 1026.66 1026.54 1026.54 1026.62 1026.62 1026.62 1026.62 1026.82 1026.86 1026.86 1026.78 1026.70 1026.70 1026.62 1026.46 1026.26 1026.18 1026.26 1026.18 1026.10 1026.10 1026.10 1026.10 1026.10 1025.94 1025.74 1025.34 1025.34 1025.38 1025.14 1025.06 1025.30 1025.42 1025.30 1024.98 1024.50 1024.26 1024.38 1024.22 1024.42 1025.02 1025.42 1025.34 1025.22 1024.90 1024.34 1023.78 1023.38 1023.58 1023.66 1023.62 1023.82 1023.86 1023.46 1023.34 1023.70 1023.78
1024.82 1024.98 1025.10 1025.34 1025.58 1025.74 1025.94 1026.10 1026.18 1026.42 1026.54 1026.58 1026.54 1026.50 1026.50 1026.50 1026.46 1026.46 1026.50 1026.62 1026.70 1026.74 1026.78 1026.82 1026.86 1026.94 1026.98 1026.94 1026.86 1026.66 1026.46 1026.26 1026.18 1026.30 1026.38 1026.46 1026.42 1026.38 1026.30 1026.18 1025.94 1025.86 1025.78 1025.50 1025.22 1024.98 1024.86 1025.14 1025.38 1025.46 1025.62 1025.66 1025.34 1025.26 1025.46 1025.54 1025.18 1025.02 1025.42 1025.74 1025.46 1024.82 1024.22 1023.98 1023.58 1023.54 1023.70 1023.66 1023.70 1023.70 1023.78 1024.14 1024.22 1024.42
1025.10 1025.10 1025.26 1025.46 1025.74 1025.98 1026.18 1026.26 1026.38 1026.46 1026.58 1026.62 1026.58 1026.50 1026.42 1026.42 1026.38 1026.46 1026.62 1026.74 1026.86 1026.90 1026.82 1026.98 1027.10 1027.06 1027.02 1027.06 1026.86 1026.74 1026.78 1026.90 1026.70 1026.58 1026.62 1026.54 1026.62 1026.58 1026.42 1026.30 1026.02 1025.94 1025.50 1025.50 1025.38 1025.02 1024.98 1025.06 1025.18 1025.22 1025.30 1025.38 1025.54 1025.54 1025.74 1025.90 1025.70 1025.26 1025.10 1025.50 1025.62 1025.30 1024.86 1024.30 1023.98 1023.70 1023.54 1023.70 1023.62 1023.10 1023.10 1023.10 1023.14 1023.58
1025.18 1025.34 1025.54 1025.58 1025.78 1026.02 1026.22 1026.38 1026.42 1026.46 1026.54 1026.58 1026.58 1026.58 1026.50 1026.50 1026.54 1026.66 1026.74 1026.78 1026.74 1026.66 1026.74 1026.98 1027.26 1027.22 1027.18 1027.26 1027.06 1026.66 1026.50 1026.50 1026.58 1026.62 1026.62 1026.58 1026.62 1026.54 1026.74 1026.38 1025.66 1025.74 1025.50 1025.30 1025.34 1025.18 1025.10 1025.18 1025.54 1026.02 1026.10 1025.78 1025.70 1025.94 1025.94 1025.38 1025.14 1024.90 1024.82 1024.98 1025.22 1025.26 1025.22 1025.02 1024.54 1024.22 1024.14 1023.90 1023.34 1023.02 1022.82 1022.94 1022.70 1022.70
1025.06 1025.30 1025.50 1025.62 1025.82 1026.06 1026.18 1026.34 1026.42 1026.46 1026.50 1026.54 1026.54 1026.58 1026.62 1026.78 1027.06 1027.34 1027.34 1027.46 1027.38 1027.26 1027.10 1027.22 1027.42 1027.38 1027.42 1027.34 1027.14 1026.90 1026.62 1026.58 1026.58 1026.70 1026.66 1026.42 1026.14 1026.10 1026.18 1025.90 1025.78 1025.70 1025.58 1025.34 1025.46 1025.38 1025.38 1025.38 1025.54 1025.50 1025.54 1025.42 1025.10 1024.98 1025.06 1025.22 1024.94 1024.82 1024.98 1024.86 1024.70 1025.02 1025.22 1025.18 1025.18 1024.98 1024.66 1024.34 1023.74 1023.18 1022.74 1022.42 1022.26 1022.50
1025.10 1025.18 1025.42 1025.62 1025.78 1025.98 1026.14 1026.26 1026.34 1026.42 1026.46 1026.54 1026.62 1026.70 1026.82 1026.94 1027.10 1027.10 1026.94 1027.18 1027.18 1027.10 1027.14 1027.30 1027.30 1027.22 1027.26 1027.30 1027.26 1027.06 1026.74 1026.70 1026.74 1026.70 1026.70 1026.54 1026.42 1026.14 1026.02 1026.06 1026.06 1025.90 1025.62 1025.42 1025.30 1025.38 1025.30 1025.30 1025.30 1025.26 1024.86 1024.66 1024.94 1024.94 1025.26 1025.22 1024.82 1024.62 1024.58 1024.42 1024.54 1024.42 1024.74 1025.14 1025.18 1025.10 1024.98 1024.86 1024.70 1024.50 1024.26 1023.94 1023.10 1023.06
1025.22 1025.30 1025.46 1025.62 1025.82 1026.02 1026.18 1026.30 1026.38 1026.46 1026.58 1026.62 1026.78 1026.82 1026.78 1026.90 1027.10 1027.14 1027.06 1027.10 1027.14 1027.18 1027.18 1027.18 1027.18 1027.18 1027.22 1027.18 1027.02 1026.78 1026.66 1026.70 1026.74 1026.70 1026.54 1026.50 1026.42 1026.26 1026.10 1026.02 1025.90 1025.86 1025.58 1025.42 1025.34 1025.14 1025.14 1025.10 1025.26 1025.18 1025.06 1025.34 1025.26 1025.22 1025.50 1025.10 1024.62 1024.74 1024.70 1024.82 1024.66 1024.46 1024.34 1024.38 1024.70 1024.94 1024.94 1024.86 1024.90 1024.90 1024.90 1024.78 1024.66 1024.54
1025.58 1025.58 1025.66 1025.74 1025.90 1026.06 1026.18 1026.26 1026.38 1026.46 1026.62 1026.74 1026.74 1026.82 1026.90 1026.90 1026.94 1027.10 1027.22 1027.22 1027.26 1027.30 1027.18 1027.10 1027.10 1027.14 1027.10 1026.90 1026.66 1026.66 1026.82 1027.02 1026.70 1026.50 1026.34 1026.18 1026.10 1026.06 1026.06 1026.06 1025.86 1025.74 1025.70 1025.82 1025.54 1025.34 1025.30 1025.14 1025.10 1025.10 1025.14 1025.30 1025.22 1025.22 1025.34 1025.26 1025.14 1024.90 1024.98 1024.98 1024.70 1024.30 1024.06 1024.10 1024.10 1023.94 1023.86 1024.06 1024.74 1024.86 1024.78 1024.82 1024.78 1024.66
Wind_Speed
10 10 11 11 9 9 7 5 4 5 6 7 8 9 9 9 9 9 9 9 7 9 9 7 7 7 6 6 5 6 6 7 8 7 5 5 6 8 8 9 8 8 7 6 5 5 5 6 7 7 7 6 6 6 6 6 4 3 3 2 2 3 2 1 2 2 2 2 6 7 6 5 4 2
8 9 10 10 9 8 8 8 9 9 8 7 8 9 9 9 9 8 9 7 8 7 8 7 6 7 7 6 6 5 6 8 8 6 6 5 5 10 9 8 8 8 7 7 6 6 6 7 7 7 7 6 6 6 6 6 6 5 5 5 5 6 6 6 6 7 6 6 8 7 7 7 6 5
8 9 10 9 8 7 7 7 6 6 7 8 8 9 8 8 8 8 7 6 6 6 8 8 5 7 8 6 6 5 5 7 7 5 5 6 6 7 7 8 8 8 8 7 6 6 6 7 7 6 6 6 6 7 7 7 7 7 7 7 7 8 8 8 8 8 9 8 8 8 8 8 8 8
8 9 9 9 7 6 5 5 6 8 8 7 8 8 8 7 7 7 7 7 4 6 6 7 7 6 7 7 7 7 6 5 7 6 5 4 7 6 6 9 8 7 7 7 6 6 6 6 6 6 6 7 7 7 7 8 8 9 9 9 9 9 9 9 9 9 10 10 11 11 10 10 10 10
8 9 9 8 9 7 7 7 8 7 7 7 7 8 8 8 6 7 8 7 4 3 1 3 5 6 6 6 7 8 7 6 7 6 5 5 5 6 6 6 10 9 7 6 6 6 6 6 6 7 7 7 8 8 8 9 10 10 10 10 10 9 9 9 9 10 10 11 12 12 11 11 12 12
8 8 8 8 6 9 11 7 9 7 7 8 8 8 9 7 7 8 9 8 6 4 4 4 4 5 6 6 7 8 8 7 7 8 6 5 6 6 5 6 6 13 9 8 8 7 7 7 7 8 8 8 8 8 9 10 10 10 10 10 9 9 9 10 10 10 10 11 12 11 12 12 13 13
8 8 8 7 8 8 9 8 7 7 8 8 9 9 7 6 8 8 9 7 7 6 5 6 6 6 6 7 7 8 6 5 6 7 7 7 6 6 6 6 5 12 10 10 9 9 8 8 8 8 8 8 8 9 10 10 10 11 11 11 11 11 11 12 12 12 12 13 13 13 13 13 13 14
9 9 9 9 9 9 10 10 9 7 7 7 8 9 8 10 9 7 7 8 6 6 5 6 7 7 7 7 4 6 5 6 6 6 6 6 7 7 6 7 6 8 11 10 9 9 9 9 9 9 9 9 9 10 10 11 11 11 11 11 11 12 12 13 13 14 14 14 15 15 15 14 15 16
9 10 10 9 9 9 10 9 9 8 9 8 8 8 8 9 7 5 7 8 7 6 7 5 5 5 6 5 5 6 7 6 6 6 7 7 7 7 6 6 6 5 10 9 10 9 10 10 10 10 10 10 11 11 12 12 12 12 13 13 13 14 14 15 15 15 16 16 16 16 16 16 17 18
9 9 8 8 9 10 10 9 9 9 10 8 8 10 9 9 7 8 8 8 7 7 7 6 5 5 7 6 5 6 7 7 7 6 7 6 6 6 7 7 5 5 5 5 6 8 9 12 13 12 11 12 13 14 14 14 14 15 15 15 15 15 15 15 15 15 15 15 15 16 17 16 16 19
9 8 7 8 9 10 10 9 10 10 10 8 9 10 9 9 8 7 8 9 9 7 6 5 6 6 6 6 6 6 6 6 6 6 6 7 7 7 7 7 6 5 5 6 7 7 6 5 5 11 14 15 15 15 15 15 15 15 15 15 15 16 16 16 16 15 15 16 16 16 16 16 16 18
8 6 8 9 9 9 9 10 9 9 9 9 9 8 7 8 8 8 9 6 5 6 6 6 6 5 6 5 2 4 6 6 6 7 7 8 8 7 6 6 5 4 5 6 6 9 9 10 12 13 13 14 15 15 13 13 14 15 16 16 16 16 16 16 16 16 16 17 17 16 16 16 16 17
8 6 8 10 9 9 7 4 4 5 2 5 8 8 8 8 8 8 4 6 1 6 6 6 5 5 5 6 6 6 7 10 9 8 7 7 5 4 4 5 6 6 5 5 6 6 6 6 7 6 8 8 10 12 15 13 14 15 15 15 15 15 15 16 16 16 16 17 17 16 16 16 17 17
8 8 8 8 9 6 7 8 7 7 7 7 8 6 7 7 7 6 8 9 10 9 8 8 7 7 7 7 8 9 9 6 4 6 7 8 5 3 3 3 4 4 5 5 6 6 4 5 6 6 7 4 5 6 5 5 4 5 7 9 11 12 13 14 15 15 15 15 15 16 16 16 16 17
8 8 9 8 7 8 7 7 8 10 10 11 10 3 3 4 6 6 7 7 11 10 9 7 7 8 8 8 8 8 7 6 7 6 6 5 5 5 5 6 4 2 4 5 5 4 3 3 5 4 4 2 2 2 2 6 5 8 10 11 11 12 12 12 13 14 14 14 15 15 15 15 16 16
8 8 8 7 6 7 8 6 6 4 3 2 4 7 7 6 7 8 2 8 8 5 8 7 8 8 8 7 7 7 7 7 6 5 5 6 6 6 6 5 4 4 2 3 3 3 3 2 3 4 2 1 1 2 3 5 6 8 9 9 10 10 11 11 12 12 13 13 13 14 14 14 15 15
8 7 7 7 5 4 7 6 5 6 7 8 10 10 11 11 10 8 6 6 3 8 6 5 6 8 6 6 7 7 7 6 7 6 6 6 6 6 5 3 3 4 1 2 4 4 3 2 3 3 1 1 1 1 6 7 6 5 6 8 8 8 8 9 9 10 11 11 12 12 13 13 14 15
8 9 8 8 7 6 7 6 7 8 8 8 7 6 5 5 7 7 9 7 4 3 8 11 9 3 1 3 2 4 5 7 7 7 7 6 6 4 2 5 5 4 2 2 3 4 2 2 2 3 1 2 3 3 2 2 3 2 2 3 4 5 6 7 8 8 9 10 11 11 12 12 13 14
7 8 6 7 7 8 8 7 9 9 9 8 7 8 8 8 7 7 6 4 2 3 4 3 5 6 4 4 5 4 3 2 0 1 1 3 3 6 7 7 6 6 4 2 2 3 1 2 3 4 3 4 5 4 5 9 6 6 5 5 6 8 8 9 9 9 9 9 10 10 10 11 12 12
4 5 6 6 7 7 7 8 10 10 10 11 10 9 9 9 9 10 8 13 13 9 8 7 6 7 8 8 6 5 4 5 6 7 7 6 6 6 5 5 5 4 4 4 2 1 3 1 3 3 4 4 6 6 6 8 8 6 6 6 8 9 9 9 9 10 10 11 11 12 11 12 11 11
3 2 3 5 7 8 7 10 12 15 15 12 11 10 9 8 10 9 8 14 19 18 17 16 14 13 14 14 14 13 12 6 2 6 6 5 3 3 3 4 3 3 2 3 2 2 3 2 4 5 4 5 6 6 5 3 4 3 6 10 10 7 7 8 8 8 9 10 10 11 12 11 11 10
4 6 10 3 6 8 9 12 14 14 12 11 11 11 12 11 11 9 7 8 9 16 17 15 15 14 14 16 17 16 15 14 7 1 3 4 2 3 2 1 3 4 4 4 4 3 2 3 3 4 5 6 3 3 3 3 3 6 10 8 7 5 7 8 9 7 7 8 9 10 10 10 9 7
5 5 8 11 7 6 10 12 10 10 8 11 10 11 11 11 11 8 7 8 9 7 8 7 8 11 10 9 9 11 16 14 11 8 6 2 2 4 2 2 2 4 4 4 5 3 1 3 1 3 5 4 4 2 1 4 6 7 7 7 7 8 9 10 9 5 4 6 7 7 7 6 7 5
6 6 6 8 10 12 11 8 6 3 4 7 8 8 10 11 11 7 7 7 7 8 8 8 8 8 6 7 8 8 8 8 9 8 6 4 3 3 2 1 0 2 2 4 5 2 2 1 2 3 3 4 2 2 5 5 5 5 5 7 7 7 7 7 5 3 2 3 5 6 6 2 5 5
7 7 6 6 9 12 12 11 10 10 10 8 5 6 7 9 11 11 10 9 10 10 9 8 7 7 7 7 7 7 7 6 6 5 6 6 5 3 1 0 0 1 4 4 5 2 2 2 3 3 2 3 4 5 3 5 5 5 7 8 8 7 6 6 7 7 7 6 5 4 3 2 5 6
8 8 7 6 10 16 16 15 14 15 15 14 10 11 15 16 13 10 9 8 8 8 7 7 7 7 7 7 7 7 6 6 5 5 4 4 4 3 3 3 1 0 3 5 4 1 1 0 2 3 3 3 4 4 5 4 3 4 6 6 7 6 6 7 8 8 7 7 5 9 8 4 3 2
9 8 9 9 14 18 18 18 18 17 18 14 11 15 14 13 12 10 7 6 6 7 6 6 7 6 6 6 6 5 5 5 4 4 4 3 3 3 3 4 3 2 3 2 3 1 1 1 1 2 3 4 5 4 4 4 4 5 6 7 8 7 5 5 6 5 5 4 4 6 4 6 3 2
9 9 9 11 18 19 19 19 19 17 15 12 14 13 13 11 9 7 7 6 6 6 6 6 6 6 5 5 5 5 4 4 4 4 3 3 3 3 4 4 4 4 3 3 2 2 1 1 1 2 3 3 4 4 5 5 5 7 8 8 8 7 6 5 5 5 4 4 7 6 5 3 1 3
9 13 15 17 18 19 19 20 19 16 15 15 13 13 12 9 6 5 5 4 5 6 6 6 6 6 5 5 5 5 4 3 2 3 3 4 4 5 6 6 6 5 3 3 2 2 1 1 2 2 2 2 3 4 5 6 7 7 7 8 8 7 6 6 6 6 7 7 6 5 5 3 2 3
16 17 18 18 16 14 13 12 10 10 10 13 14 14 11 7 6 5 5 5 5 6 5 6 6 5 5 5 4 4 3 4 4 3 3 3 4 3 4 6 6 5 5 4 4 3 2 1 1 2 2 2 4 4 5 6 6 6 6 7 8 7 4 7 8 7 7 8 8 6 5 4 3 3
11 14 14 13 15 14 17 16 13 12 10 10 8 7 7 7 7 6 6 5 5 5 5 6 6 5 5 4 4 4 5 5 5 4 3 3 4 3 3 4 5 5 5 4 3 4 4 3 2 2 3 4 3 3 5 5 6 6 6 7 8 8 8 8 7 8 8 8 7 6 4 4 3 2
8 8 9 11 9 10 10 9 9 8 8 7 7 7 8 8 8 8 9 8 5 5 5 5 5 5 4 4 4 4 5 5 4 4 4 4 4 3 2 4 4 3 4 4 5 6 6 6 4 2 2 3 3 4 4 4 4 5 6 7 7 7 7 8 9 9 9 7 6 6 6 5 5 3
6 7 8 8 8 8 7 7 8 8 8 8 8 8 7 6 6 5 4 4 4 3 4 5 5 5 5 5 4 4 5 5 5 3 3 4 4 3 4 5 5 5 5 5 5 6 6 6 5 4 3 3 3 4 5 4 4 5 6 7 7 7 8 8 9 9 8 7 6 6 5 4 4 2
7 7 6 6 5 5 6 6 6 5 6 5 5 5 6 5 5 4 4 3 3 3 4 5 5 5 4 5 5 5 5 6 6 5 4 4 3 4 5 5 5 5 5 5 5 6 6 5 3 3 4 4 4 6 6 4 5 6 6 7 7 8 8 8 8 8 7 6 6 7 6 5 4 3
4 3 4 4 5 5 5 5 4 4 4 3 3 4 3 5 4 3 4 4 3 4 5 5 5 5 5 5 5 5 5 5 5 5 5 5 5 5 5 6 6 6 6 5 5 5 6 6 6 3 1 3 5 4 5 7 6 7 7 7 7 7 7 7 7 7 8 8 7 7 6 6 5 3
3 3 4 4 4 5 5 4 5 6 5 4 4 3 3 3 2 3 5 3 4 4 5 5 5 5 5 5 5 4 4 4 4 5 4 5 4 4 5 6 6 5 5 5 5 5 5 5 6 5 3 2 2 1 2 4 8 7 7 6 7 7 7 7 6 7 8 8 8 7 6 5 6 4
3 3 5 5 5 5 5 6 6 6 5 5 4 3 3 4 4 5 5 4 5 4 5 5 6 5 3 3 3 3 2 2 3 3 4 4 4 4 3 3 5 4 4 4 4 4 4 5 5 5 5 2 3 3 4 3 4 7 8 6 6 7 7 7 7 7 7 7 7 7 5 4 4 5
3 5 6 6 6 6 5 5 5 5 6 5 5 5 5 5 5 5 4 4 4 3 3 4 4 4 3 2 2 3 2 2 3 4 4 3 3 3 3 2 2 2 3 5 4 4 3 4 5 5 5 4 4 5 5 6 2 4 8 6 5 6 6 6 5 5 5 5 4 4 5 4 4 4
5 5 5 6 5 6 6 5 5 6 6 3 3 3 4 4 4 4 4 4 4 3 3 3 3 3 2 2 2 2 3 3 4 4 3 3 2 2 2 2 2 3 2 3 4 4 4 5 5 5 4 3 4 4 5 6 5 4 4 4 4 4 5 5 5 3 4 3 3 1 1 1 2 4
5 4 4 5 6 6 6 5 4 4 4 4 4 3 4 3 3 4 3 3 3 3 3 3 3 2 2 2 2 2 3 2 2 3 2 2 2 2 2 2 2 2 2 3 3 4 4 5 5 5 4 4 2 3 3 3 4 2 1 2 2 3 4 5 5 4 3 4 4 2 2 1 2 2
5 5 4 5 5 5 5 4 4 4 5 4 5 4 5 5 4 3 3 2 2 2 3 2 2 2 2 1 1 2 3 3 2 2 1 1 1 1 2 4 2 3 3 3 5 5 6 5 5 2 4 3 2 2 3 2 0 1 2 2 3 1 5 7 6 5 4 4 3 2 2 3 2 2
5 5 5 5 5 5 5 5 5 5 5 5 4 3 4 3 3 3 3 2 2 2 2 2 1 1 1 1 1 1 3 3 3 2 2 2 2 2 1 3 3 3 4 4 5 4 5 4 3 2 3 4 3 1 2 3 3 3 3 2 1 6 3 4 6 5 5 4 4 4 3 2 2 4
5 5 5 6 6 6 6 6 5 5 5 4 3 3 2 2 2 2 2 2 2 2 2 2 1 2 2 1 1 1 2 3 2 2 2 2 3 3 3 3 3 3 3 3 3 2 3 3 4 2 1 2 2 1 2 2 2 2 2 2 2 2 2 5 2 2 2 3 4 4 4 4 5 4
5 6 6 6 7 7 7 6 5 5 4 2 2 2 2 3 3 2 2 2 2 2 2 2 2 2 2 1 1 2 2 2 2 2 3 3 3 4 4 4 3 3 3 3 3 4 4 4 4 3 3 3 3 2 2 2 2 2 2 2 2 1 1 1 3 5 5 4 3 3 4 5 4 2
3 4 5 6 7 6 5 5 5 4 3 3 3 3 3 3 3 3 2 2 2 2 2 2 2 2 1 1 2 3 2 1 1 2 2 3 4 3 4 4 3 3 3 4 3 4 4 4 4 3 3 3 3 3 1 1 2 2 2 1 1 2 1 2 2 1 0 2 4 4 1 1 3 3
Wind_Direction
207 208 211 216 219 223 206 188 212 222 220 203 196 198 191 182 175 180 192 198 201 184 203 187 179 188 171 172 171 178 201 155 166 193 202 188 188 169 183 176 174 179 179 182 187 187 174 158 151 150 152 153 160 164 161 155 155 167 168 157 156 142 132 143 177 176 179 208 152 141 147 152 171 212
213 208 210 212 220 222 209 200 207 202 212 205 204 207 208 202 197 182 191 191 200 180 187 207 164 174 173 168 170 185 203 132 189 193 201 196 199 152 190 181 183 186 189 191 197 198 191 181 174 174 173 175 177 180 177 175 178 193 207 202 191 187 194 199 201 206 203 183 170 170 171 179 191 209
215 209 210 214 222 219 210 206 204 206 202 207 207 211 215 208 219 199 202 203 179 199 180 196 195 165 173 172 168 180 201 155 190 196 192 213 127 152 189 195 192 198 197 200 205 209 207 201 194 190 191 193 195 200 201 196 200 208 218 219 211 209 207 209 215 217 217 213 202 198 193 198 205 215
210 213 214 214 212 220 215 192 198 204 210 208 212 210 212 210 212 215 214 226 167 188 196 180 179 162 162 172 177 181 190 142 184 203 198 158 111 200 198 184 207 206 210 207 212 219 213 214 215 212 212 213 213 215 218 215 215 218 223 225 225 225 225 224 222 226 229 228 224 224 219 212 215 220
209 211 215 211 205 202 206 198 216 207 200 199 209 213 209 213 203 209 217 219 182 131 133 154 166 162 163 180 195 188 183 176 186 204 198 184 200 208 217 197 186 206 210 218 219 227 232 223 226 225 226 228 228 226 225 226 226 227 228 231 234 235 237 236 234 234 235 234 233 232 229 226 221 221
208 213 215 217 159 200 207 197 208 200 193 198 205 206 211 211 201 203 218 213 212 156 165 176 157 161 190 200 185 197 188 186 186 191 191 192 207 215 218 220 191 183 204 211 216 227 229 228 231 232 228 233 237 239 239 238 241 242 241 242 246 249 248 247 245 242 239 238 237 233 231 229 227 219
203 203 207 203 181 206 199 202 210 197 196 198 205 206 186 200 222 206 215 207 206 187 170 178 175 181 183 208 187 195 191 185 187 195 198 201 199 215 219 222 228 165 196 203 218 225 229 234 234 233 236 238 238 241 245 248 252 252 250 247 245 246 248 250 249 244 241 239 236 235 232 230 226 219
207 204 201 205 198 201 205 206 205 200 195 197 205 204 193 192 210 199 202 214 214 196 170 184 192 180 177 199 187 173 175 180 187 204 207 201 208 208 209 221 238 170 186 202 219 224 228 234 237 236 239 240 240 244 246 248 251 254 255 255 253 252 250 250 249 248 246 243 240 237 235 232 228 223
210 207 207 205 200 200 205 206 207 202 198 202 204 207 204 204 188 188 208 212 208 187 201 161 184 165 185 185 183 180 185 181 193 199 210 208 212 214 216 224 222 186 171 204 219 226 227 231 234 237 238 238 241 243 246 247 248 249 251 251 251 250 249 248 248 247 245 243 242 241 238 235 233 232
214 216 210 209 201 204 209 208 207 205 202 202 206 208 210 206 187 193 202 209 204 207 214 174 164 188 182 184 190 188 196 187 186 196 203 208 214 212 215 219 216 216 210 210 207 212 225 225 229 235 233 236 240 242 242 243 244 246 248 249 252 254 255 255 254 253 253 253 252 250 247 244 238 236
218 220 221 218 211 210 212 211 206 201 199 204 208 208 205 211 198 175 208 206 203 206 204 187 185 178 191 191 185 183 194 202 206 196 191 213 210 211 216 217 206 207 217 216 211 238 262 271 247 214 221 231 237 243 243 244 246 251 255 257 256 255 256 258 259 260 259 257 254 252 250 248 245 243
223 205 211 222 218 216 211 210 200 193 207 210 211 205 206 207 203 193 199 184 190 201 210 205 187 190 171 179 175 145 176 195 213 217 213 220 209 205 206 214 211 199 207 229 216 203 218 231 236 244 245 237 238 243 251 251 251 252 254 255 256 258 260 260 261 260 261 260 259 256 252 248 246 244
212 193 211 217 221 219 225 198 177 194 235 224 213 211 204 203 203 207 155 91 13 258 223 209 192 178 187 189 178 183 192 201 207 191 200 227 225 206 192 202 207 220 223 230 236 236 217 229 237 240 244 235 213 233 231 252 251 249 254 257 258 260 262 264 264 264 263 262 260 257 254 250 247 244
208 197 198 214 222 208 188 189 192 194 200 234 258 230 206 206 208 194 134 164 202 213 212 216 194 194 202 196 193 200 206 200 179 168 191 214 206 198 229 226 206 194 219 236 240 240 213 234 254 248 253 253 209 258 229 250 283 281 261 261 264 264 265 266 266 266 266 266 265 262 258 254 250 245
208 205 205 210 180 189 183 184 180 184 190 198 218 227 218 222 189 155 140 195 216 210 214 205 196 209 211 202 198 207 194 186 194 196 192 202 196 211 217 229 149 171 208 217 243 242 189 230 254 249 250 224 259 283 297 20 323 288 286 281 279 280 279 277 275 274 273 272 270 267 263 259 255 250
202 202 199 201 193 204 200 179 153 113 94 145 62 61 58 38 23 11 203 217 206 219 231 208 203 210 219 203 190 195 188 186 183 190 186 194 202 203 216 226 224 102 189 203 238 249 152 233 256 269 265 288 332 351 351 317 283 279 281 287 288 285 282 280 277 274 273 271 268 267 264 259 256 252
195 192 186 183 183 148 116 146 152 141 118 95 95 95 91 68 55 42 36 28 329 221 228 243 210 219 221 199 197 191 183 170 179 174 192 197 201 208 218 222 143 116 84 262 254 262 141 192 247 273 343 358 351 269 192 215 254 286 288 281 282 285 285 285 286 285 284 281 278 275 270 263 257 253
198 193 188 182 172 156 162 157 155 146 138 136 129 119 104 87 72 64 41 55 51 247 191 231 241 139 2 260 174 147 158 176 193 186 196 182 191 190 117 75 82 74 17 306 318 274 170 68 325 308 351 17 340 323 358 285 75 246 270 290 295 302 303 301 297 292 288 285 281 276 270 263 255 251
175 174 173 169 161 158 166 164 157 147 139 126 111 101 87 75 66 50 39 21 64 92 15 358 72 78 74 72 86 113 130 205 277 330 148 135 124 111 109 100 98 87 51 20 274 267 20 21 328 309 342 343 329 336 333 81 52 40 19 18 9 7 3 354 346 335 323 311 297 287 277 268 262 255
160 163 165 162 154 157 156 136 147 135 124 110 104 98 96 93 79 67 57 72 59 59 79 70 64 69 67 60 68 58 86 111 105 103 100 103 124 141 150 130 132 104 70 21 304 262 266 23 313 331 337 334 323 328 315 85 59 22 1 3 21 20 14 357 346 335 325 316 308 300 293 285 276 269
104 110 155 160 154 148 140 141 141 136 131 126 123 118 111 104 96 93 78 75 84 82 78 81 78 76 74 70 63 54 33 24 46 127 123 108 143 158 169 125 143 138 121 43 345 292 292 22 350 322 322 324 313 306 310 332 41 335 342 13 14 32 8 354 339 331 320 311 302 296 290 285 278 274
90 60 32 28 152 144 140 152 149 150 133 126 124 123 117 109 104 104 103 94 80 87 86 79 74 65 65 66 62 53 44 33 11 88 95 90 94 83 58 113 141 135 145 74 345 309 315 348 316 309 313 308 278 299 324 330 319 347 347 351 341 25 2 339 329 329 331 321 310 294 283 276 270 252
88 77 53 29 27 108 136 151 156 170 153 132 143 137 121 115 114 117 120 110 107 94 82 66 64 61 47 54 59 52 48 38 38 55 68 57 107 105 118 154 182 188 151 62 347 300 314 326 353 355 327 311 321 293 347 321 334 332 331 338 332 7 339 323 300 291 313 318 313 305 286 274 247 261
88 77 73 52 48 86 104 92 68 11 316 138 137 136 126 127 126 138 119 103 102 94 94 93 86 86 81 71 61 59 54 48 40 38 48 42 44 110 131 105 340 316 73 80 352 314 319 328 316 359 311 309 305 344 320 316 326 322 328 332 322 337 320 302 295 258 176 319 339 343 334 289 243 287
95 79 64 68 61 76 75 73 70 65 41 31 104 111 123 117 122 123 112 102 101 104 104 102 98 94 88 81 78 72 62 53 48 48 38 34 23 21 26 150 111 117 81 55 339 316 322 335 313 334 308 293 285 293 305 310 303 319 335 325 328 336 337 339 341 344 4 4 32 17 350 10 231 281
78 77 74 69 76 79 76 71 67 62 59 54 66 72 91 103 116 117 111 118 115 109 106 99 88 81 73 68 63 60 59 52 48 48 50 40 31 27 21 3 356 158 106 71 33 12 306 249 23 323 310 302 297 294 301 293 309 339 323 327 332 336 347 348 347 347 345 351 344 23 8 17 204 235
91 86 88 88 88 87 86 84 80 78 77 71 73 75 74 78 82 88 95 92 100 100 95 89 86 79 77 77 73 70 73 68 55 59 51 45 45 55 44 36 24 27 44 57 65 54 307 352 17 331 325 315 300 307 300 326 335 338 325 340 332 332 343 337 335 334 336 336 351 131 201 130 77 102
88 86 83 93 88 84 82 78 74 72 72 79 79 78 78 73 73 84 91 89 88 85 84 80 78 74 70 80 82 75 72 68 57 51 46 56 66 81 98 92 78 55 58 67 74 82 47 334 328 327 318 316 319 327 329 329 335 336 332 334 322 324 327 329 327 327 324 331 330 338 339 331 133 187
79 89 88 82 82 84 82 79 76 68 65 68 70 69 66 64 61 55 61 72 83 81 78 82 80 75 63 64 66 64 67 65 60 74 87 81 80 92 94 89 85 84 72 54 68 72 19 342 347 345 319 345 333 339 335 331 329 325 334 324 324 333 321 333 327 333 337 332 334 328 325 319 277 241
72 73 71 66 62 65 74 75 73 76 71 67 65 62 59 60 54 44 57 49 68 81 87 89 94 94 94 83 76 71 72 63 46 32 65 107 107 119 128 115 95 83 73 57 43 33 21 342 343 333 329 358 359 339 334 329 323 327 327 326 330 311 332 339 335 333 331 327 332 327 324 319 307 278
67 66 68 75 74 69 63 68 71 70 66 60 52 49 53 54 43 35 41 51 63 82 93 99 98 97 93 94 85 74 71 65 46 27 23 53 66 69 84 98 101 97 89 89 68 29 11 17 4 355 343 360 352 357 338 320 320 333 335 343 338 339 345 342 340 345 349 339 334 333 329 324 319 297
65 70 70 65 61 61 54 51 53 52 55 56 53 49 53 60 60 58 51 51 57 65 84 93 95 93 89 79 74 75 69 65 52 34 41 46 59 43 66 91 79 82 85 66 56 43 27 20 10 17 10 2 358 354 334 333 345 343 340 352 344 348 355 356 356 360 358 344 339 339 344 346 336 326
56 52 50 50 51 54 61 55 53 49 48 44 47 54 60 63 59 53 46 62 58 65 77 77 79 79 77 76 70 76 78 73 69 44 59 48 56 60 69 72 64 45 39 36 25 25 23 19 17 11 36 77 48 16 358 350 356 1 358 0 2 5 11 13 9 3 357 358 360 356 357 10 354 354
61 56 59 47 52 51 64 64 56 50 52 47 49 48 54 64 72 78 81 77 69 57 72 74 71 67 72 73 71 75 83 87 83 60 35 49 42 60 64 67 64 57 42 38 25 10 3 6 6 116 94 96 74 47 24 9 2 10 10 15 14 16 19 16 12 12 8 11 2 6 6 350 353 313
64 75 76 73 67 67 70 76 75 73 76 82 84 69 57 60 77 84 90 99 103 93 88 81 81 82 84 84 82 84 81 85 78 74 67 67 67 69 63 59 52 46 38 33 28 21 2 359 357 4 139 171 184 144 30 6 18 15 20 22 21 18 13 14 4 7 9 14 12 13 5 11 8 2
74 79 90 89 88 90 84 87 101 106 105 99 97 105 95 77 55 78 87 87 90 91 87 89 85 82 80 82 81 81 84 85 81 74 68 66 64 58 58 57 52 48 40 37 29 27 19 17 11 3 350 333 328 291 112 66 36 18 20 16 13 10 359 355 3 8 12 12 11 8 14 17 14 20
90 88 92 99 105 101 106 111 113 112 106 107 105 100 105 103 95 88 90 89 80 75 81 89 87 86 85 87 86 78 67 65 73 67 63 59 58 55 58 63 55 48 35 38 29 28 21 24 25 15 1 350 9 10 14 84 43 13 21 0 351 353 345 341 346 7 12 11 11 13 6 15 22 24
111 111 108 108 110 107 107 110 112 114 118 118 113 106 100 100 99 97 92 81 78 81 81 81 85 87 80 75 86 87 82 76 72 69 63 51 50 52 49 44 48 25 29 38 35 37 26 30 28 24 17 9 9 3 358 359 57 72 64 360 344 336 340 340 358 6 5 16 22 7 7 26 25 16
113 111 108 111 108 113 114 116 111 117 121 109 99 97 101 99 95 86 75 72 70 76 78 77 74 75 80 72 65 62 66 66 69 68 65 62 51 49 35 36 34 17 8 31 36 40 34 31 28 24 18 6 358 2 350 328 332 351 77 59 337 346 1 358 2 9 9 6 13 357 45 72 113 134
98 87 95 102 113 115 118 115 105 106 103 100 93 91 94 92 89 87 82 79 75 70 75 78 84 87 78 65 76 95 91 83 73 69 62 63 51 23 18 5 15 357 6 33 21 24 29 22 15 1 356 353 335 327 324 302 289 284 307 126 5 343 356 358 7 2 20 12 342 351 77 118 60 118
105 101 102 107 111 114 113 110 111 108 103 101 100 90 86 83 82 75 75 71 82 86 87 79 69 60 73 67 44 60 78 76 73 67 61 61 55 35 341 300 36 19 10 31 24 15 15 7 16 1 281 284 279 245 241 233 8 14 13 36 134 63 339 330 358 17 14 350 345 4 28 34 46 67
117 115 114 118 116 116 115 112 113 109 106 104 105 101 88 78 73 82 84 69 74 78 91 91 94 96 86 60 56 42 60 59 58 50 37 25 46 64 46 30 30 19 14 20 15 12 3 1 327 274 247 233 237 257 27 36 27 27 27 19 42 159 148 26 9 1 357 7 11 24 21 56 70 61
117 118 114 115 118 116 114 114 112 110 107 104 101 101 101 100 114 121 108 105 103 99 94 93 89 85 82 75 59 36 60 68 57 53 44 43 36 37 43 40 19 6 6 11 11 12 9 7 8 360 350 26 26 11 40 29 25 34 36 34 26 18 136 160 143 95 68 17 358 7 6 354 0 37
111 110 112 118 119 118 116 116 115 113 113 112 110 114 116 115 104 100 108 110 106 101 98 94 89 84 85 81 75 67 62 62 61 55 59 58 44 38 33 28 20 14 6 19 20 26 24 26 38 23 42 40 33 38 50 8 24 22 18 17 349 350 30 141 170 195 208 161 96 59 26 351 358 1
88 99 110 118 120 120 121 119 117 117 116 120 122 115 114 112 109 101 91 94 99 99 93 92 90 89 84 76 74 78 76 66 41 56 47 47 45 39 38 24 23 25 31 12 10 24 22 34 43 44 48 47 40 51 55 20 3 6 14 359 341 354 6 20 356 346 329 120 115 116 126 72 26 2